DHK112 ENBR-BIKF

Flight info

Callsign DHK112
Flight time N/A
Altitude 34000
Route REKLI DCT VALDI/M081F340 DCT ING DCT NASBU NASBU5N
Aircraft B77L/H-SDE1E2E3FGHIJ2J3J4J5M1RWXY/LB1D1

Departure

Time 2026-05-06 17:39
Airport Bergen Airport, Flesland (ENBR)

Arrival

Time N/A
Airport Keflavik International Airport (BIKF)
Time Latitude Longitude Altitude Speed Heading
2026-05-06 17:02 60.28698 5.22900 177 ft 0 kts 80°
2026-05-06 17:25 60.28698 5.22897 177 ft 1 kts 81°
2026-05-06 17:25 60.28695 5.22864 177 ft 3 kts 81°
2026-05-06 17:25 60.28692 5.22825 177 ft 2 kts 81°
2026-05-06 17:26 60.28690 5.22794 176 ft 3 kts 68°
2026-05-06 17:26 60.28682 5.22766 175 ft 3 kts 36°
2026-05-06 17:26 60.28669 5.22753 175 ft 3 kts
2026-05-06 17:26 60.28650 5.22754 174 ft 3 kts 351°
2026-05-06 17:27 60.28636 5.22759 174 ft 1 kts 351°
2026-05-06 17:27 60.28632 5.22760 174 ft 1 kts 351°
2026-05-06 17:33 60.28661 5.22734 174 ft 11 kts 316°
2026-05-06 17:33 60.28677 5.22481 170 ft 25 kts 285°
2026-05-06 17:33 60.28751 5.22336 167 ft 14 kts 349°
2026-05-06 17:33 60.28851 5.22303 166 ft 15 kts 351°
2026-05-06 17:34 60.28952 5.22271 166 ft 15 kts 350°
2026-05-06 17:34 60.29052 5.22236 167 ft 15 kts 350°
2026-05-06 17:34 60.29152 5.22203 167 ft 15 kts 350°
2026-05-06 17:34 60.29255 5.22167 167 ft 17 kts 350°
2026-05-06 17:35 60.29418 5.22109 162 ft 28 kts 348°
2026-05-06 17:35 60.29613 5.22049 153 ft 29 kts 351°
2026-05-06 17:35 60.29815 5.21984 154 ft 29 kts 352°
2026-05-06 17:36 60.30218 5.21844 169 ft 29 kts 350°
2026-05-06 17:36 60.30419 5.21777 177 ft 29 kts 350°
2026-05-06 17:36 60.30600 5.21718 197 ft 20 kts 352°
2026-05-06 17:36 60.30661 5.21591 196 ft 0 kts 270°
2026-05-06 17:37 60.30660 5.21551 195 ft 10 kts 265°
2026-05-06 17:37 60.30614 5.21402 195 ft 10 kts 196°
2026-05-06 17:38 60.30532 5.21416 181 ft 12 kts 171°
2026-05-06 17:38 60.30478 5.21434 178 ft 1 kts 170°
2026-05-06 17:38 60.30467 5.21438 178 ft 2 kts 170°
2026-05-06 17:38 60.30384 5.21466 174 ft 47 kts 170°
2026-05-06 17:39 60.29738 5.21683 157 ft 151 kts 171°
2026-05-06 17:39 60.28403 5.22118 415 ft 219 kts 172°
2026-05-06 17:39 60.27362 5.22453 1055 ft 238 kts 173°
2026-05-06 17:39 60.25292 5.23119 2636 ft 225 kts 173°
2026-05-06 17:40 60.23686 5.23637 3096 ft 246 kts 173°
2026-05-06 17:40 60.21940 5.24215 3700 ft 258 kts 172°
2026-05-06 17:40 60.20762 5.24612 4263 ft 261 kts 172°
2026-05-06 17:40 60.18960 5.25222 5138 ft 264 kts 172°
2026-05-06 17:41 60.17138 5.25842 5825 ft 267 kts 172°
2026-05-06 17:41 60.15291 5.26468 6579 ft 272 kts 172°
2026-05-06 17:41 60.12841 5.26061 7385 ft 272 kts 211°
2026-05-06 17:41 60.11501 5.23504 8200 ft 266 kts 243°
2026-05-06 17:42 60.11047 5.21189 8767 ft 264 kts 260°
2026-05-06 17:42 60.10977 5.17535 9595 ft 264 kts 278°
2026-05-06 17:42 60.11514 5.14080 10293 ft 267 kts 297°
2026-05-06 17:42 60.12440 5.10719 10613 ft 288 kts 300°
2026-05-06 17:43 60.13498 5.07099 10826 ft 313 kts 300°
2026-05-06 17:43 60.14648 5.03194 11168 ft 333 kts 300°
2026-05-06 17:43 60.15840 4.99133 11947 ft 341 kts 300°
2026-05-06 17:43 60.17037 4.94988 12956 ft 344 kts 298°
2026-05-06 17:44 60.18136 4.90692 13988 ft 346 kts 295°
2026-05-06 17:44 60.19171 4.86312 14944 ft 347 kts 294°
2026-05-06 17:44 60.20186 4.81910 15975 ft 347 kts 294°
2026-05-06 17:44 60.21198 4.77507 16974 ft 347 kts 293°
2026-05-06 17:45 60.22214 4.73098 17953 ft 348 kts 293°
2026-05-06 17:45 60.23237 4.68670 18813 ft 350 kts 292°
2026-05-06 17:45 60.24269 4.64213 19602 ft 352 kts 292°
2026-05-06 17:45 60.25309 4.59728 20377 ft 354 kts 292°
2026-05-06 17:46 60.26339 4.55284 21150 ft 356 kts 292°
2026-05-06 17:46 60.27390 4.50748 21925 ft 358 kts 291°
2026-05-06 17:46 60.28444 4.46192 22690 ft 360 kts 291°
2026-05-06 17:46 60.29505 4.41601 23439 ft 362 kts 291°
2026-05-06 17:47 60.30572 4.36971 24049 ft 366 kts 291°
2026-05-06 17:47 60.31652 4.32276 24562 ft 371 kts 291°
2026-05-06 17:47 60.32744 4.27518 25077 ft 375 kts 291°
2026-05-06 17:47 60.33845 4.22708 25606 ft 379 kts 291°
2026-05-06 17:48 60.34955 4.17853 26119 ft 384 kts 291°
2026-05-06 17:48 60.36078 4.12930 26625 ft 388 kts 291°
2026-05-06 17:48 60.37212 4.07949 27113 ft 392 kts 291°
2026-05-06 17:48 60.38358 4.02902 27616 ft 397 kts 291°
2026-05-06 17:49 60.39515 3.97796 28088 ft 401 kts 291°
2026-05-06 17:49 60.40682 3.92632 28552 ft 405 kts 291°
2026-05-06 17:49 60.41857 3.87419 29018 ft 410 kts 291°
2026-05-06 17:49 60.43045 3.82139 29455 ft 414 kts 291°
2026-05-06 17:50 60.44239 3.76812 29867 ft 418 kts 291°
2026-05-06 17:50 60.45441 3.71444 30335 ft 419 kts 291°
2026-05-06 17:50 60.46642 3.66068 30766 ft 420 kts 291°
2026-05-06 17:50 60.47850 3.60647 31143 ft 422 kts 291°
2026-05-06 17:51 60.49062 3.55191 31510 ft 424 kts 291°
2026-05-06 17:51 60.50258 3.49789 31901 ft 426 kts 291°
2026-05-06 17:51 60.51471 3.44299 32291 ft 427 kts 291°
2026-05-06 17:51 60.52686 3.38786 32677 ft 429 kts 291°
2026-05-06 17:52 60.53904 3.33241 33017 ft 430 kts 291°
2026-05-06 17:52 60.55123 3.27679 33400 ft 431 kts 291°
2026-05-06 17:52 60.56344 3.22097 33768 ft 432 kts 291°
2026-05-06 17:52 60.57566 3.16490 33971 ft 437 kts 291°
2026-05-06 17:53 60.60035 3.05115 34010 ft 439 kts 291°
2026-05-06 17:53 60.62475 2.93826 34019 ft 433 kts 291°
2026-05-06 17:54 60.64892 2.82574 34024 ft 433 kts 291°
2026-05-06 17:54 60.67284 2.71371 34025 ft 434 kts 291°
2026-05-06 17:55 60.69689 2.60051 34020 ft 435 kts 291°
2026-05-06 17:55 60.72092 2.48677 34020 ft 436 kts 291°
2026-05-06 17:56 60.74487 2.37277 34017 ft 437 kts 291°
2026-05-06 17:56 60.76881 2.25822 34020 ft 438 kts 291°
2026-05-06 17:57 60.79268 2.14334 34020 ft 439 kts 291°
2026-05-06 17:57 60.81649 2.02814 34020 ft 439 kts 290°
2026-05-06 17:58 60.84023 1.91262 34019 ft 440 kts 290°
2026-05-06 17:58 60.86389 1.79682 34016 ft 440 kts 290°
2026-05-06 17:59 60.88729 1.68161 34018 ft 440 kts 290°
2026-05-06 17:59 60.91078 1.56532 34022 ft 441 kts 290°
2026-05-06 18:00 60.93420 1.44872 34018 ft 441 kts 290°
2026-05-06 18:00 60.95750 1.33204 34015 ft 441 kts 290°
2026-05-06 18:01 60.98076 1.21485 34014 ft 442 kts 290°
2026-05-06 18:01 61.00392 1.09750 34014 ft 442 kts 290°
2026-05-06 18:02 61.02700 0.97988 34008 ft 442 kts 290°
2026-05-06 18:02 61.04999 0.86199 34009 ft 443 kts 290°
2026-05-06 18:03 61.07275 0.74462 34009 ft 443 kts 290°
2026-05-06 18:03 61.09562 0.62597 34009 ft 444 kts 290°
2026-05-06 18:04 61.11836 0.50727 34014 ft 444 kts 290°
2026-05-06 18:04 61.14104 0.38820 34016 ft 445 kts 290°
2026-05-06 18:05 61.16361 0.26892 34006 ft 445 kts 290°
2026-05-06 18:05 61.18608 0.14954 34006 ft 445 kts 290°
2026-05-06 18:06 61.20832 0.03068 34005 ft 445 kts 290°
2026-05-06 18:06 61.23357 -0.08682 34006 ft 445 kts 294°
2026-05-06 18:07 61.26066 -0.20237 34009 ft 445 kts 294°
2026-05-06 18:07 61.28773 -0.31813 34007 ft 445 kts 294°
2026-05-06 18:08 61.31455 -0.43427 34009 ft 445 kts 294°
2026-05-06 18:08 61.34118 -0.55076 34009 ft 445 kts 294°
2026-05-06 18:09 61.36767 -0.66734 34011 ft 445 kts 294°
2026-05-06 18:09 61.39388 -0.78335 34008 ft 445 kts 294°
2026-05-06 18:10 61.42014 -0.90017 34009 ft 444 kts 294°
2026-05-06 18:10 61.44635 -1.01741 34009 ft 444 kts 294°
2026-05-06 18:11 61.47239 -1.13454 34008 ft 444 kts 294°
2026-05-06 18:11 61.49834 -1.25189 34008 ft 444 kts 293°
2026-05-06 18:12 61.52401 -1.36864 34007 ft 444 kts 293°
2026-05-06 18:12 61.54973 -1.48631 34009 ft 444 kts 293°
2026-05-06 18:13 61.57538 -1.60426 34012 ft 443 kts 293°
2026-05-06 18:13 61.60089 -1.72226 34013 ft 443 kts 293°
2026-05-06 18:14 61.62628 -1.84033 34008 ft 443 kts 293°
2026-05-06 18:14 61.65157 -1.95865 34018 ft 443 kts 293°
2026-05-06 18:15 61.67677 -2.07721 34016 ft 444 kts 293°
2026-05-06 18:15 61.70173 -2.19529 34005 ft 444 kts 292°
2026-05-06 18:16 61.72673 -2.31427 34006 ft 444 kts 292°
2026-05-06 18:16 61.75163 -2.43344 34006 ft 444 kts 292°
2026-05-06 18:17 61.77643 -2.55282 34013 ft 444 kts 292°
2026-05-06 18:17 61.80116 -2.67252 34027 ft 444 kts 292°
2026-05-06 18:18 61.82578 -2.79245 34018 ft 444 kts 292°
2026-05-06 18:18 61.85029 -2.91253 34012 ft 444 kts 292°
2026-05-06 18:19 61.87457 -3.03213 34021 ft 444 kts 292°
2026-05-06 18:19 61.89889 -3.15268 34019 ft 444 kts 292°
2026-05-06 18:20 61.92305 -3.27318 34015 ft 444 kts 292°
2026-05-06 18:20 61.94716 -3.39408 34024 ft 444 kts 291°
2026-05-06 18:21 61.97116 -3.51521 34023 ft 444 kts 291°
2026-05-06 18:21 61.99505 -3.63645 34018 ft 445 kts 291°
2026-05-06 18:22 62.01884 -3.75797 34020 ft 445 kts 291°
2026-05-06 18:22 62.04239 -3.87897 34026 ft 445 kts 291°
2026-05-06 18:23 62.06601 -4.00107 34021 ft 445 kts 291°
2026-05-06 18:23 62.08950 -4.12324 34020 ft 445 kts 291°
2026-05-06 18:24 62.11291 -4.24577 34023 ft 446 kts 291°
2026-05-06 18:24 62.13625 -4.36866 34028 ft 446 kts 291°
2026-05-06 18:25 62.15946 -4.49162 34028 ft 446 kts 291°
2026-05-06 18:25 62.18257 -4.61487 34024 ft 446 kts 291°
2026-05-06 18:26 62.20560 -4.73842 34025 ft 447 kts 290°
2026-05-06 18:26 62.22840 -4.86151 34033 ft 447 kts 290°
2026-05-06 18:27 62.25122 -4.98551 34029 ft 447 kts 290°
2026-05-06 18:27 62.27396 -5.10987 34033 ft 447 kts 290°
2026-05-06 18:28 62.29290 -5.21407 34033 ft 447 kts 290°
2026-05-06 18:28 62.31544 -5.33878 34029 ft 448 kts 290°
2026-05-06 18:29 62.33773 -5.46289 34030 ft 448 kts 290°
2026-05-06 18:29 62.36005 -5.58803 34030 ft 448 kts 290°
2026-05-06 18:30 62.38229 -5.71354 34036 ft 448 kts 290°
2026-05-06 18:30 62.40445 -5.83934 34036 ft 449 kts 290°
2026-05-06 18:31 62.42650 -5.96542 34036 ft 449 kts 290°
2026-05-06 18:31 62.44845 -6.09174 34031 ft 449 kts 289°
2026-05-06 18:32 62.47028 -6.21826 34036 ft 450 kts 289°
2026-05-06 18:32 62.49175 -6.34401 34024 ft 439 kts 289°
2026-05-06 18:33 62.51246 -6.46702 34035 ft 430 kts 290°
2026-05-06 18:33 62.53275 -6.58781 34029 ft 422 kts 290°
2026-05-06 18:34 62.55263 -6.70632 34027 ft 415 kts 289°
2026-05-06 18:34 62.57199 -6.82233 34031 ft 408 kts 289°
2026-05-06 18:35 62.59106 -6.93713 34024 ft 401 kts 289°
2026-05-06 18:35 62.60974 -7.05029 34025 ft 394 kts 289°
2026-05-06 18:36 62.62800 -7.16157 34027 ft 388 kts 289°
2026-05-06 18:36 62.64588 -7.27121 34031 ft 381 kts 289°
2026-05-06 18:37 62.66336 -7.37908 34028 ft 375 kts 289°
2026-05-06 18:37 62.68035 -7.48453 34025 ft 368 kts 289°
2026-05-06 18:38 62.69704 -7.58874 34030 ft 361 kts 289°
2026-05-06 18:38 62.71334 -7.69110 34027 ft 353 kts 289°
2026-05-06 18:39 62.72919 -7.79117 34021 ft 345 kts 289°
2026-05-06 18:40 62.75208 -7.93677 34024 ft 331 kts 289°
2026-05-06 18:40 62.75949 -7.98416 33909 ft 329 kts 289°
2026-05-06 18:40 62.76687 -8.03147 33711 ft 329 kts 289°
2026-05-06 18:40 62.77422 -8.07873 33601 ft 327 kts 289°
2026-05-06 18:41 62.78140 -8.12503 33517 ft 325 kts 289°
2026-05-06 18:41 62.78871 -8.17227 33334 ft 325 kts 288°
2026-05-06 18:41 62.79591 -8.21896 33194 ft 323 kts 288°
2026-05-06 18:41 62.80296 -8.26476 33093 ft 321 kts 288°
2026-05-06 18:42 62.81015 -8.31154 32960 ft 320 kts 288°
2026-05-06 18:42 62.81719 -8.35756 32820 ft 319 kts 288°
2026-05-06 18:42 62.82412 -8.40291 32679 ft 318 kts 288°
2026-05-06 18:42 62.83109 -8.44866 32578 ft 316 kts 288°
2026-05-06 18:43 62.83802 -8.49428 32446 ft 315 kts 288°
2026-05-06 18:43 62.84491 -8.53980 32311 ft 315 kts 288°
2026-05-06 18:43 62.85177 -8.58512 32202 ft 313 kts 288°
2026-05-06 18:43 62.85859 -8.63028 32088 ft 312 kts 288°
2026-05-06 18:44 62.86539 -8.67550 31944 ft 312 kts 288°
2026-05-06 18:44 62.87213 -8.72044 31805 ft 311 kts 288°
2026-05-06 18:44 62.87901 -8.76635 31206 ft 324 kts 288°
2026-05-06 18:44 62.88620 -8.81445 30565 ft 340 kts 288°
2026-05-06 18:45 62.89359 -8.86409 30368 ft 344 kts 288°
2026-05-06 18:45 62.90103 -8.91426 30190 ft 348 kts 288°
2026-05-06 18:45 62.90851 -8.96486 30065 ft 350 kts 287°
2026-05-06 18:46 62.92341 -9.06614 30053 ft 347 kts 287°
2026-05-06 18:46 62.93800 -9.16586 30050 ft 344 kts 287°
2026-05-06 18:47 62.95256 -9.26581 30047 ft 341 kts 287°
2026-05-06 18:47 62.96686 -9.36465 30048 ft 338 kts 287°
2026-05-06 18:48 62.98095 -9.46255 30047 ft 334 kts 287°
2026-05-06 18:48 62.99482 -9.55948 30049 ft 330 kts 287°
2026-05-06 18:49 63.00848 -9.65549 30052 ft 326 kts 287°
2026-05-06 18:49 63.02188 -9.75018 30053 ft 322 kts 287°
2026-05-06 18:50 63.03494 -9.84301 30052 ft 317 kts 287°
2026-05-06 18:50 63.04789 -9.93560 30049 ft 311 kts 287°
2026-05-06 18:51 63.06045 -10.02592 30052 ft 305 kts 287°
2026-05-06 18:51 63.07259 -10.11367 30054 ft 297 kts 287°
2026-05-06 18:51 63.07857 -10.15703 30005 ft 295 kts 287°
2026-05-06 18:52 63.08452 -10.20033 29851 ft 295 kts 287°
2026-05-06 18:52 63.09047 -10.24378 29706 ft 295 kts 287°
2026-05-06 18:52 63.09637 -10.28690 29666 ft 292 kts 287°
2026-05-06 18:52 63.10223 -10.32989 29519 ft 293 kts 287°
2026-05-06 18:53 63.10808 -10.37293 29386 ft 292 kts 287°
2026-05-06 18:53 63.11390 -10.41587 29309 ft 291 kts 287°
2026-05-06 18:53 63.11970 -10.45875 29172 ft 291 kts 287°
2026-05-06 18:53 63.12546 -10.50149 29085 ft 290 kts 287°
2026-05-06 18:54 63.13120 -10.54416 28960 ft 289 kts 287°
2026-05-06 18:54 63.13691 -10.58668 28863 ft 288 kts 287°
2026-05-06 18:54 63.14260 -10.62912 28773 ft 287 kts 287°
2026-05-06 18:54 63.14827 -10.67153 28669 ft 287 kts 287°
2026-05-06 18:55 63.15383 -10.71323 28575 ft 286 kts 287°
2026-05-06 18:55 63.15944 -10.75545 28451 ft 286 kts 287°
2026-05-06 18:55 63.16504 -10.79769 28400 ft 284 kts 287°
2026-05-06 18:55 63.17055 -10.83946 28291 ft 283 kts 286°
2026-05-06 18:56 63.17609 -10.88143 28127 ft 285 kts 286°
2026-05-06 18:56 63.18160 -10.92346 28054 ft 283 kts 286°
2026-05-06 18:56 63.18706 -10.96512 28013 ft 281 kts 287°
2026-05-06 18:56 63.19253 -11.00688 27830 ft 283 kts 287°
2026-05-06 18:57 63.19800 -11.04882 27743 ft 282 kts 286°
2026-05-06 18:57 63.20338 -11.09018 27749 ft 278 kts 286°
2026-05-06 18:57 63.20876 -11.13169 27551 ft 282 kts 286°
2026-05-06 18:57 63.21418 -11.17358 27421 ft 281 kts 286°
2026-05-06 18:58 63.21952 -11.21498 27440 ft 277 kts 287°
2026-05-06 18:58 63.22484 -11.25629 27257 ft 281 kts 286°
2026-05-06 18:58 63.23019 -11.29803 27118 ft 281 kts 286°
2026-05-06 18:58 63.23552 -11.33947 27113 ft 278 kts 287°
2026-05-06 18:59 63.24079 -11.38067 27005 ft 278 kts 287°
2026-05-06 18:59 63.24607 -11.42212 26830 ft 281 kts 286°
2026-05-06 18:59 63.25135 -11.46376 26789 ft 278 kts 286°
2026-05-06 18:59 63.25657 -11.50497 26740 ft 277 kts 286°
2026-05-06 19:00 63.26178 -11.54621 26568 ft 280 kts 286°
2026-05-06 19:00 63.26696 -11.58735 26462 ft 279 kts 286°
2026-05-06 19:00 63.27213 -11.62854 26466 ft 276 kts 286°
2026-05-06 19:00 63.27560 -11.65628 26407 ft 277 kts 287°
2026-05-06 19:01 63.28249 -11.71130 26195 ft 279 kts 286°
2026-05-06 19:01 63.28763 -11.75255 26193 ft 275 kts 287°
2026-05-06 19:01 63.29273 -11.79357 26092 ft 276 kts 286°
2026-05-06 19:01 63.29786 -11.83494 25969 ft 277 kts 287°
2026-05-06 19:02 63.30295 -11.87610 25945 ft 275 kts 287°
2026-05-06 19:02 63.30801 -11.91710 25858 ft 275 kts 287°
2026-05-06 19:02 63.31309 -11.95834 25730 ft 276 kts 287°
2026-05-06 19:02 63.31816 -11.99951 25692 ft 275 kts 287°
2026-05-06 19:03 63.32319 -12.04055 25594 ft 275 kts 287°
2026-05-06 19:03 63.32820 -12.08170 25507 ft 276 kts 287°
2026-05-06 19:03 63.33320 -12.12282 25454 ft 274 kts 287°
2026-05-06 19:03 63.33817 -12.16381 25372 ft 275 kts 287°
2026-05-06 19:04 63.34315 -12.20498 25275 ft 275 kts 287°
2026-05-06 19:04 63.34809 -12.24595 25262 ft 273 kts 287°
2026-05-06 19:04 63.35300 -12.28678 25158 ft 274 kts 287°
2026-05-06 19:04 63.35796 -12.32801 25053 ft 276 kts 287°
2026-05-06 19:05 63.36289 -12.36919 25032 ft 273 kts 287°
2026-05-06 19:05 63.36778 -12.41022 24943 ft 274 kts 287°
2026-05-06 19:05 63.37267 -12.45129 24860 ft 274 kts 287°
2026-05-06 19:05 63.37754 -12.49232 24824 ft 273 kts 287°
2026-05-06 19:06 63.38246 -12.53346 24828 ft 284 kts 286°
2026-05-06 19:06 63.38762 -12.57625 25117 ft 288 kts 286°
2026-05-06 19:06 63.39286 -12.61969 25386 ft 293 kts 286°
2026-05-06 19:06 63.39817 -12.66403 25650 ft 298 kts 286°
2026-05-06 19:07 63.40352 -12.70913 25916 ft 303 kts 285°
2026-05-06 19:07 63.40713 -12.73960 26104 ft 307 kts 285°
2026-05-06 19:07 63.41445 -12.80195 26471 ft 314 kts 285°
2026-05-06 19:07 63.42001 -12.84958 26745 ft 320 kts 285°
2026-05-06 19:08 63.42563 -12.89807 27024 ft 326 kts 285°
2026-05-06 19:08 63.43135 -12.94757 27308 ft 332 kts 285°
2026-05-06 19:08 63.43714 -12.99788 27596 ft 337 kts 285°
2026-05-06 19:08 63.44300 -13.04912 27884 ft 343 kts 285°
2026-05-06 19:09 63.44894 -13.10126 28176 ft 349 kts 285°
2026-05-06 19:09 63.45499 -13.15450 28476 ft 356 kts 285°
2026-05-06 19:09 63.46110 -13.20846 28777 ft 361 kts 285°
2026-05-06 19:09 63.46731 -13.26348 29073 ft 367 kts 285°
2026-05-06 19:10 63.47350 -13.31870 29369 ft 373 kts 285°
2026-05-06 19:10 63.47984 -13.37538 29685 ft 379 kts 285°
2026-05-06 19:10 63.48628 -13.43319 29914 ft 386 kts 285°
2026-05-06 19:10 63.49284 -13.49226 30025 ft 397 kts 285°
2026-05-06 19:11 63.49956 -13.55298 30102 ft 407 kts 285°
2026-05-06 19:11 63.50643 -13.61540 30114 ft 419 kts 285°
2026-05-06 19:11 63.51344 -13.67936 30116 ft 423 kts 285°
2026-05-06 19:12 63.52722 -13.80621 30112 ft 418 kts 285°
2026-05-06 19:12 63.54101 -13.93434 30117 ft 424 kts 285°
2026-05-06 19:13 63.55467 -14.06222 30128 ft 423 kts 285°
2026-05-06 19:13 63.56598 -14.16909 30117 ft 423 kts 285°
2026-05-06 19:14 63.57949 -14.29787 30126 ft 423 kts 285°
2026-05-06 19:14 63.59283 -14.42638 30137 ft 424 kts 285°
2026-05-06 19:15 63.60608 -14.55503 30129 ft 424 kts 285°
2026-05-06 19:15 63.61932 -14.68500 30126 ft 424 kts 285°
2026-05-06 19:16 63.63244 -14.81489 30136 ft 426 kts 285°
2026-05-06 19:16 63.64549 -14.94524 30137 ft 427 kts 285°
2026-05-06 19:17 63.65839 -15.07567 30129 ft 427 kts 285°
2026-05-06 19:17 63.67120 -15.20647 30136 ft 425 kts 285°
2026-05-06 19:18 63.68383 -15.33659 30141 ft 428 kts 285°
2026-05-06 19:18 63.69642 -15.46774 30144 ft 429 kts 285°
2026-05-06 19:19 63.70893 -15.59941 30131 ft 427 kts 285°
2026-05-06 19:19 63.72126 -15.73059 30146 ft 426 kts 285°
2026-05-06 19:20 63.73350 -15.86205 30145 ft 429 kts 285°
2026-05-06 19:20 63.73968 -15.92901 30158 ft 440 kts 285°
2026-05-06 19:20 63.74600 -15.99756 30163 ft 449 kts 285°
2026-05-06 19:21 63.75850 -16.13513 30157 ft 448 kts 284°
2026-05-06 19:21 63.77086 -16.27297 30146 ft 448 kts 284°
2026-05-06 19:22 63.78320 -16.41166 30148 ft 449 kts 284°
2026-05-06 19:22 63.79545 -16.55076 30157 ft 452 kts 284°
2026-05-06 19:23 63.80630 -16.69136 30156 ft 457 kts 280°
2026-05-06 19:23 63.81360 -16.83516 30150 ft 460 kts 279°
2026-05-06 19:24 63.82039 -16.97810 30149 ft 459 kts 279°
2026-05-06 19:24 63.82726 -17.12220 30143 ft 459 kts 278°
2026-05-06 19:25 63.83410 -17.26600 30149 ft 459 kts 278°
2026-05-06 19:25 63.84085 -17.40973 30160 ft 459 kts 278°
2026-05-06 19:26 63.84745 -17.55361 30155 ft 459 kts 278°
2026-05-06 19:26 63.85386 -17.69680 30159 ft 459 kts 278°
2026-05-06 19:27 63.86018 -17.84108 30159 ft 460 kts 278°
2026-05-06 19:27 63.86636 -17.98550 30156 ft 461 kts 278°
2026-05-06 19:28 63.87241 -18.13039 30164 ft 461 kts 278°
2026-05-06 19:28 63.87831 -18.27540 30166 ft 462 kts 277°
2026-05-06 19:29 63.88417 -18.42236 30185 ft 478 kts 277°
2026-05-06 19:29 63.89013 -18.57592 30225 ft 497 kts 277°
2026-05-06 19:29 63.89314 -18.65502 29837 ft 510 kts 277°
2026-05-06 19:30 63.89613 -18.73557 29016 ft 513 kts 277°
2026-05-06 19:30 63.89909 -18.81616 27636 ft 512 kts 277°
2026-05-06 19:30 63.90198 -18.89660 26560 ft 507 kts 277°
2026-05-06 19:30 63.90475 -18.97534 26085 ft 491 kts 277°
2026-05-06 19:31 63.90738 -19.05169 25633 ft 478 kts 277°
2026-05-06 19:31 63.90994 -19.12592 25147 ft 467 kts 277°
2026-05-06 19:31 63.91474 -19.26843 24675 ft 439 kts 277°
2026-05-06 19:32 63.91697 -19.33638 24579 ft 423 kts 277°
2026-05-06 19:32 63.91909 -19.40203 24478 ft 410 kts 277°
2026-05-06 19:32 63.92113 -19.46557 24278 ft 400 kts 277°
2026-05-06 19:32 63.92313 -19.52829 23870 ft 396 kts 277°
2026-05-06 19:33 63.92510 -19.59061 23400 ft 393 kts 277°
2026-05-06 19:33 63.92701 -19.65226 22967 ft 389 kts 277°
2026-05-06 19:33 63.92888 -19.71330 22566 ft 384 kts 277°
2026-05-06 19:33 63.93070 -19.77354 22167 ft 380 kts 277°
2026-05-06 19:34 63.93247 -19.83310 21767 ft 376 kts 277°